Regional Weather Roundup
Issued by NWS

Home | Current Version | Previous Version | Graphics & Text | Print | Product List | Glossary On
Versions: 1 2 3 4 5 6 7 8 9 10 11 12 13 14 15 16 17 18 19 20 21 22 23 24 25 26 27 28 29 30 31 32 33 34 35 36 37 38 39 40 41 42 43 44 45 46 47 48 49 50
000
ASUS43 KMKX 290100
RWRWI

WISCONSIN REGIONAL WEATHER ROUNDUP
NATIONAL WEATHER SERVICE MILWAUKEE/SULLIVAN WI
800 PM CDT SUN MAY 28 2017

NOTE: "FAIR" INDICATES FEW OR NO CLOUDS BELOW 12,000 FEET WITH NO
SIGNIFICANT WEATHER AND/OR OBSTRUCTIONS TO VISIBILITY.

WIZ001-002-006>008-014>016-023>028-290200-
NORTHWEST WISCONSIN

CITY           SKY/WX    TMP DP  RH WIND       PRES   REMARKS
SUPERIOR ARPT  NOT AVBL
ASHLAND        PTCLDY    58  49  72 SW5       29.65S
HAYWARD        CLEAR     61  46  57 W6        29.68S
SIREN          PTCLDY    58  47  65 CALM      29.72R
CUMBERLAND     MOCLDY    57  48  72 W7G16     29.72R
RICE LAKE      PTCLDY    58  52  79 W5        29.73S
CHETEK         CLEAR     57  52  82 CALM      29.72S
LADYSMITH      CLOUDY    60  51  71 SW7       29.71F
EAU CLAIRE     NOT AVBL
MENOMONIE      PTCLDY    61  49  64 W7        29.73S
NEW RICHMOND   PTCLDY    61  51  69 CALM      29.74S
OSCEOLA        CLEAR     63  50  62 NW5       29.75R
$$

WIZ003>005-009-010-017-018-290200-
NORTH CENTRAL WISCONSIN

CITY           SKY/WX    TMP DP  RH WIND       PRES   REMARKS
MANITOWISH WTR MOCLDY    55  50  83 W5        29.67S
ARBOR VITAE    CLOUDY    57  53  87 W3        29.67F
WOODRUFF       CLOUDY    57  53  87 W3        29.67F
RHINELANDER    CLOUDY    58  51  78 W9        29.68R
EAGLE RIVER    DRIZZLE   58  45  62 W13G22    29.67R
LAND O LAKES   RAIN      57  51  79 W9G21     29.69R
PHILLIPS       CLEAR     57  50  76 NW3       29.68S
TOMAHAWK       CLOUDY    59  48  66 W5        29.70S
MEDFORD        CLOUDY    58  48  70 W12G17    29.71S
MERRILL        CLOUDY    58  54  86 W7        29.70F
$$

WIZ029-030-035-036-043>047-290200-
CENTRAL WISCONSIN

CITY           SKY/WX    TMP DP  RH WIND       PRES   REMARKS
WAUSAU         CLOUDY    57  52  83 W8        29.68F
MOSINEE        NOT AVBL
MARSHFIELD     PTCLDY    62  46  55 NW9       29.70R
STEVENS POINT  MOCLDY    65  46  49 NW8       29.70R
WAUPACA        CLEAR     70  44  38 W8        29.69S
WAUTOMA          N/A     68  47  46 W8          N/A
WISC RAPIDS    MOCLDY    67  47  48 NW6       29.71R
CAMP DOUGLAS   NOT AVBL
$$

WIZ011>013-019>022-031-037>040-048>050-290200-
NORTHEAST WISCONSIN

CITY           SKY/WX    TMP DP  RH WIND       PRES   REMARKS
ANTIGO         MOCLDY    59  47  64 W20G30    29.69R
SHAWANO        CLEAR     70  43  37 W8        29.66S
OCONTO         CLEAR     69  44  40 W10G17    29.63R
STURGEON BAY   MOCLDY    63  55  75 SW6       29.64R
GREEN BAY      CLEAR     67  48  50 W12       29.66R
MANITOWOC      NOT AVBL
APPLETON       PTCLDY    66  41  39 W12G21    29.67R
CLINTONVILLE   CLEAR     68  41  37 W10G20    29.67R
OSHKOSH        CLEAR     68  45  43 W10G18    29.68R
$$

WIZ032>034-041-042-053>061-290200-
SOUTHWEST WISCONSIN

CITY           SKY/WX    TMP DP  RH WIND       PRES   REMARKS
LA CROSSE      CLEAR     71  45  39 W9        29.71S
SPARTA         CLEAR     70  43  37 W8        29.73R
VIROQUA        CLEAR     69  42  37 CALM      29.75S
BOSCOBEL       CLEAR     72  44  36 W5        29.74R
PRAIRIE DU CHI CLEAR     73  38  28 W10       29.74R
PLATTEVILLE    CLEAR     71  45  39 W8        29.76R
$$

WIZ056-057-062-063-064-067-068-290200-
SOUTH CENTRAL WISCONSIN

CITY           SKY/WX    TMP DP  RH WIND       PRES   REMARKS
REEDSBURG      CLEAR     69  44  40 W15G25    29.72S
BARABOO/DELLS  CLEAR     68  44  42 W7        29.72S
LONE ROCK      NOT AVBL
MINERAL POINT  CLEAR     70  43  37 NW6       29.76R
MADISON        PTCLDY    69  45  41 VRB6      29.73R
MIDDLETON      CLEAR     70  44  39 W10       29.74R
WATERTOWN      PTCLDY    70  48  45 W10G18    29.72R
MONROE         CLEAR     70  43  37 W9        29.75S
JANESVILLE     PTCLDY    72  46  40 W9        29.74R
$$

WIZ051-052-058>065-066-070>072-290200-
SOUTHEAST WISCONSIN

CITY           SKY/WX    TMP DP  RH WIND       PRES   REMARKS
MILWAUKEE      PTCLDY    74  46  36 W12G21    29.71R
WAUKESHA       PTCLDY    68  45  42 W12       29.73R
MILWAUKEE/TIMM PTCLDY    72  41  33 W9        29.71R
RACINE         PTCLDY    71  49  45 W7        29.73R
KENOSHA        PTCLDY    70  47  43 W14G24    29.72R
FOND DU LAC    CLEAR     69  45  41 W8        29.69R
SHEBOYGAN      CLEAR     69  50  50 W9        29.68R
WEST BEND      CLEAR     70  45  40 W9G17     29.70R
JUNEAU         PTCLDY    68  47  45 W8        29.72S
$$

LSZ147-162-290200-
LAKE SUPERIOR

STATION/POSITION TIME  TEMP    WIND        PRES    WAVE
                       AIR SEA DIR/SP/G            HT/PER
                 (UTC) (F)     (DEG/KT/KT) (MB)    (FT/S)
W MID LAKE BUOY  2350   41 38  170/  2/  4 1004.0R   0
DEVILS ISLAND    0000   51     190/  6/  8 1003.7F
PORT WING        2300   53     180/  3/ 14 1004.7
SAXON HARBOR     0040   57     200/  4/  6 1004.1S
$$

LMZ867-665-643>646-290200-
LAKE MICHIGAN

STATION/POSITION TIME  TEMP    WIND        PRES    WAVE
                       AIR SEA DIR/SP/G            HT/PER
                 (UTC) (F)     (DEG/KT/KT) (MB)    (FT/S)
CHAMBERS ISLAND  0030   55     360/ 12/ 18 1004.1R
N MID LAKE BUOY  2350   45 42  130/  4/  4 1005.2R   0
NORTHPORT PIER   0040   54     300/  9/ 16 1004.4R
SISTER BAY       2321   56     150/ 13/ 18   N/A
KEWAUNEE LAKESHO 0030   51     190/ 11/ 14 1003.7R
SHEBOYGAN LAKESH 0000   56     180/ 16/ 18 1004.1F
PORT WASHINGTON  0030   56      70/  2/  3 1006.1S
ATWATER BUOY     2309   54     140/ 10/ 14 1005.5F
MILWAUKEE LAKESH 0030   74     290/ 13/ 15   N/A
S MID LAKE BUOY  2350   52 50  180/  6/  6 1006.7R   0
KENOSHA   LAKESH 0000   58     160/ 11/ 13 1006.1
$$

TC  - TEMPERATURE IN CELSIUS
VSB - VISIBILITY IN STATUTE MILES
WCI - WIND CHILL INDEX
HX  - HEAT INDEX





USA.gov is the U.S. government's official web portal to all federal, state and local government web resources and services.